Location: Brusselsch Zeekanaal
(50.8667°N, 4.3667°E)
Time: 10:50:52
(UTC+00:00)

Cosmos 1727 Rocket - Pass Details

Date: 08 November 2025
Orbit: 961 x 995 km, 82.9° (Epoch: 10 December)

Event Time Altitude Azimuth Distance (km) Brightness Sun altitude
Rises 04:54:11 0° 212° (SSW) 3,639 6.7 -17.9°
Reaches altitude 10° 04:56:49 10° 219° (SW) 2,699 6.0 -17.4°
Maximum altitude 05:02:38 42° 289° (WNW) 1,359 4.3 -16.5°
Drops below altitude 10° 05:08:33 10° 360° (N) 2,734 6.3 -15.6°
Sets 05:11:15 0° 7° (N) 3,691 7.0 -15.2°
